User: anonymous   Login
Location: Monroe
(41.9160°N, 83.3980°W)
Time: 02:48:00
(UTC-04:00)
Language:

deb Explorer IX - Orbit

View from above orbital plane
View from above orbital plane
View from above satellite
View from above satellite

Ground track
Ground track

The orbit data is extracted from the following two-line orbital elements,

1 00085U 61004C   17266.50147942  .00000208  00000-0  65555-4 0  9998
2 00085  38.7784  61.0854 0406187 343.7422  15.0615 14.18015972789243
Epoch (UTC): 23 September 2017 12:02:07
Eccentricity: 0.0406187
inclination: 38.7784°
perigee height: 539 km
apogee height: 1125 km
right ascension of ascending node: 61.0854°
argument of perigee: 343.7422°
revolutions per day: 14.18015972
mean anomaly at epoch: 15.0615°
orbit number at epoch: 78924

The dashed part of the orbit path shows where the satellite is in the earth's shadow,  

DLR